Weather History for Talkeetna, AK

Change the Weather History Date:

Monday, March 24, 2014

  Actual Average Record
Temperature  
Mean Temperature 26 °F -  
Max Temperature 45 °F 35 °F 50 °F (1974)
Min Temperature 8 °F 15 °F -15 °F (1972)
Degree Days  
Heating Degree Days 38    
Moisture  
Dew Point 4 °F    
Average Humidity 37    
Maximum Humidity 74    
Minimum Humidity 8    
Precipitation  
Precipitation 0.00 in - - ()
Sea Level Pressure  
Sea Level Pressure 30.17 in    
Wind  
Wind Speed 4 mph (NNE)    
Max Wind Speed 20 mph    
Max Gust Speed 28 mph    
Visibility 10 miles    
Events      
Averages and records for this station are not official NWS values.
T = Trace of Precipitation, MM = Missing Value Source: NWS Daily Summary

Daily Weather History Graph

Daily Weather History Graph

Search for Another Location

Airport:

Trip Planner

Search our weather history database for the weather conditions in past years. The results will help you decide how hot, cold, wet, or windy it might be!

Date:

Astronomy

Mar. 24, 2014 Rise Set
Actual Time 7:47 AM AKDT 8:27 PM AKDT
Civil Twilight 7:02 AM AKDT 9:12 PM AKDT
Nautical Twilight 6:06 AM AKDT 10:08 PM AKDT
Astronomical Twilight 5:03 AM AKDT 11:12 PM AKDT
Moon 5:10 AM AKDT (3/24) 12:21 PM AKDT (3/24)
Length of Visible Light 14h 10m
Length of Day
12h 39m
Last Quarter, 41% of the Moon is Illuminated
Mar 24
Last Quarter
Mar 30
New
Apr 7
First Quarter
Apr 14
Full
Apr 21
Last Quarter

Hourly Weather History & Observations

Time (AKDT) Temp. Windchill Dew Point Humidity Pressure Visibility Wind Dir Wind Speed Gust Speed Precip Events Conditions
12:53 AM 18.0 °F - 8.1 °F 65% 30.35 in 10.0 mi Calm Calm - N/A   Clear
1:53 AM 15.1 °F - 8.1 °F 74% 30.35 in 10.0 mi Calm Calm - N/A   Clear
2:53 AM 15.1 °F - 7.0 °F 70% 30.34 in 10.0 mi Calm Calm - N/A   Clear
3:53 AM 21.0 °F 14.6 °F 5.0 °F 50% 30.32 in 10.0 mi NNE 4.6 mph - N/A   Clear
4:53 AM 12.9 °F - 5.0 °F 71% 30.31 in 10.0 mi Calm Calm - N/A   Clear
5:53 AM 12.0 °F - 3.0 °F 67% 30.30 in 10.0 mi Calm Calm - N/A   Clear
6:53 AM 9.0 °F - 1.9 °F 73% 30.29 in 10.0 mi Calm Calm - N/A   Clear
7:53 AM 10.9 °F - 3.0 °F 70% 30.27 in 10.0 mi Calm Calm - N/A   Clear
8:53 AM 15.1 °F - 5.0 °F 64% 30.27 in 10.0 mi Calm Calm - N/A   Clear
9:53 AM 21.9 °F - 5.0 °F 48% 30.25 in 10.0 mi Calm Calm - N/A   Clear
10:53 AM 30.9 °F 27.5 °F 6.1 °F 35% 30.22 in 10.0 mi Variable 3.5 mph - N/A   Clear
11:53 AM 42.1 °F 37.7 °F 1.9 °F 19% 30.20 in 10.0 mi NNE 6.9 mph - N/A   Clear
12:53 PM 43.0 °F 37.7 °F 1.0 °F 17% 30.17 in 10.0 mi NNE 9.2 mph 20.7 mph N/A   Clear
1:53 PM 45.0 °F 40.6 °F 1.0 °F 16% 30.16 in 10.0 mi NNE 8.1 mph - N/A   Clear
2:53 PM 44.1 °F 38.6 °F 1.0 °F 17% 30.14 in 10.0 mi North 10.4 mph 18.4 mph N/A   Clear
3:53 PM 44.1 °F 37.7 °F 1.9 °F 17% 30.11 in 10.0 mi NNE 12.7 mph 27.6 mph N/A   Clear
4:53 PM 43.0 °F 34.5 °F 1.9 °F 18% 30.09 in 10.0 mi NNE 19.6 mph 26.5 mph N/A   Clear
5:53 PM 43.0 °F 34.8 °F 3.9 °F 20% 30.06 in 10.0 mi NNE 18.4 mph 26.5 mph N/A   Clear
6:53 PM 42.1 °F 36.6 °F 3.9 °F 21% 30.04 in 10.0 mi NNE 9.2 mph 17.3 mph N/A   Clear
7:53 PM 39.0 °F 32.8 °F 3.9 °F 23% 30.02 in 10.0 mi North 9.2 mph - N/A   Clear
8:53 PM 37.9 °F 34.4 °F 3.0 °F 23% 30.00 in 10.0 mi North 4.6 mph - N/A   Clear
9:53 PM 37.0 °F 31.0 °F 3.0 °F 24% 29.98 in 10.0 mi NNE 8.1 mph - N/A   Clear
10:53 PM 35.1 °F 31.0 °F 3.0 °F 26% 29.96 in 10.0 mi NW 4.6 mph - N/A   Clear
11:53 PM 36.0 °F 31.1 °F 1.0 °F 23% 29.93 in 10.0 mi NNE 5.8 mph - N/A   Clear